Time,TemperatureF,DewpointF,PressureIn,WindDirection,WindDirectionDegrees,WindSpeedMPH,WindSpeedGustMPH,Humidity,HourlyPrecipIn,Conditions,Clouds,dailyrainin,SoftwareType,DateUTC
2013-02-19 13:00:00,30.8,20.0,29.56,WNW,293,0.7,0.7,64,0.00,,,0.00,WUHU216HW,2013-02-19 18:00:00,
2013-02-19 13:05:00,30.8,19.6,29.56,NNW,338,0.7,0.7,63,0.00,,,0.00,WUHU216HW,2013-02-19 18:05:00,
2013-02-19 13:10:00,30.8,19.6,29.56,NNW,338,0.7,0.7,63,0.00,,,0.00,WUHU216HW,2013-02-19 18:10:00,
2013-02-19 13:30:00,29.5,16.1,29.54,NNW,338,1.3,1.3,57,0.00,,,0.00,WUHU216HW,2013-02-19 18:30:00,
2013-02-19 13:31:00,29.5,16.1,29.54,NNW,338,1.3,1.3,57,0.00,,,0.00,WUHU216HW,2013-02-19 18:31:00,
2013-02-19 13:35:00,29.5,16.1,29.54,NNW,338,1.3,1.3,57,0.00,,,0.00,WUHU216HW,2013-02-19 18:35:00,
2013-02-19 13:36:00,29.5,16.1,29.54,NNW,338,1.3,1.3,57,0.00,,,0.00,WUHU216HW,2013-02-19 18:36:00,
2013-02-19 13:59:00,29.3,4.9,29.52,North,0,2.5,2.5,35,0.00,,,0.00,WUHU216HW,2013-02-19 18:59:00,
2013-02-19 14:00:00,29.3,4.9,29.52,North,0,2.5,2.5,35,0.00,,,0.00,WUHU216HW,2013-02-19 19:00:00,
2013-02-19 14:05:00,29.3,4.9,29.52,North,0,2.5,2.5,35,0.00,,,0.00,WUHU216HW,2013-02-19 19:05:00,
2013-02-19 14:29:00,29.9,-5.6,29.51,NNW,338,1.1,1.1,21,0.00,,,0.00,WUHU216HW,2013-02-19 19:29:00,
2013-02-19 14:30:00,29.9,-5.6,29.51,NNW,338,1.1,1.1,21,0.00,,,0.00,WUHU216HW,2013-02-19 19:30:00,
2013-02-19 14:35:00,29.9,-5.6,29.51,NNW,338,1.1,1.1,21,0.00,,,0.00,WUHU216HW,2013-02-19 19:35:00,
2013-02-19 14:59:00,30.2,-0.1,29.49,North,0,0.0,0.0,27,0.00,,,0.00,WUHU216HW,2013-02-19 19:59:00,
2013-02-19 15:00:00,30.2,-0.1,29.49,North,0,0.0,0.0,27,0.00,,,0.00,WUHU216HW,2013-02-19 20:00:00,
2013-02-19 15:05:00,30.2,-0.1,29.49,North,0,0.0,0.0,27,0.00,,,0.00,WUHU216HW,2013-02-19 20:05:00,
2013-02-19 15:30:00,30.1,-20.0,29.47,North,0,1.8,1.8,1,0.00,,,0.00,WUHU216HW,2013-02-19 20:30:00,
2013-02-19 15:35:00,30.1,-20.0,29.47,North,0,1.8,1.8,1,0.00,,,0.00,WUHU216HW,2013-02-19 20:35:00,
2013-02-19 15:59:00,30.2,-19.8,29.47,NNW,338,0.7,0.7,1,0.00,,,0.00,WUHU216HW,2013-02-19 20:59:00,
2013-02-19 16:00:00,30.2,-19.8,29.47,NNW,338,0.7,0.7,1,0.00,,,0.00,WUHU216HW,2013-02-19 21:00:00,
2013-02-19 16:04:00,30.2,-19.8,29.47,NNW,338,0.7,0.7,1,0.00,,,0.00,WUHU216HW,2013-02-19 21:04:00,
2013-02-19 16:05:00,30.2,-19.8,29.47,NNW,338,0.7,0.7,1,0.00,,,0.00,WUHU216HW,2013-02-19 21:05:00,
2013-02-19 16:30:00,30.4,-19.6,29.46,NNW,338,0.4,0.4,1,0.00,,,0.00,WUHU216HW,2013-02-19 21:30:00,
2013-02-19 16:35:00,30.4,-19.6,29.46,NNW,338,0.4,0.4,1,0.00,,,0.00,WUHU216HW,2013-02-19 21:35:00,
2013-02-19 16:59:00,30.6,-19.5,29.44,North,0,0.4,0.4,1,0.00,,,0.00,WUHU216HW,2013-02-19 21:59:00,
2013-02-19 17:00:00,30.6,-19.5,29.44,North,0,0.4,0.4,1,0.00,,,0.00,WUHU216HW,2013-02-19 22:00:00,
2013-02-19 17:04:00,30.6,-19.5,29.44,North,0,0.4,0.4,1,0.00,,,0.00,WUHU216HW,2013-02-19 22:04:00,
2013-02-19 17:05:00,30.6,-19.5,29.44,North,0,0.4,0.4,1,0.00,,,0.00,WUHU216HW,2013-02-19 22:05:00,